Kuiper-00047

operational
NORAD ID: 64507 Int'l Des: 2025-134 Owner: KUIP Country: US Constellation: kuiper
LEOCIRCULAR

About Kuiper-00047

Description loading...

Live Position

Loading 3D Globe...

Upcoming Passes

Altitude History

Altitude vs Time

uPlot chart will show altitude changes over time

Two-Line Element Set

1 64507U 25134H 26062.48624926 .00004024 00000-0 59260-3 0 9999
2 64507 51.8982 243.1616 0002629 121.4427 238.6792 14.77234684 39397
Epoch: Mar 3, 2026 • Age: 17 hours

Current Status

Altitude 642.5 km
Velocity 7.54 km/s
Sub-Earth Point 50.19°N, 103.26°W
Launch Date Jun 23, 2025
Age 0.6 years
Type internet

Technical Details

Classification Payload
Mass 490.00 kg
Dry Mass 490.00 kg
Total Mass 490.00 kg
Length 1.80 m
Diameter 0.70 m
Span 5.00 m
Shape Box + 2 pan
Manufacturer KUIP
Bus Type Kuiper
Phase Status In Orbit
Owner/State KUIP/US

Large Constellations

Loading constellations...